Location: Lake Sonoma
(38.7200°N, 123.0564°W)
Time: 21:33:18
(UTC-08:00)

ISS - Visible Passes

Search period start: 08 February 2016 00:00
Search period end: 18 February 2016 00:00
Orbit: 399 x 408 km, 51.6° (Epoch: 08 February)

Date Brightness Start Highest point End Pass type
(mag) Time Alt. Az. Time Alt. Az. Time Alt. Az.
13 Feb -0.9 19:23:13 10° NNW 19:24:18 14° N 19:24:18 14° N visible
14 Feb -0.9 18:31:02 10° N 18:32:13 11° NNE 18:33:24 10° NE visible
14 Feb -0.2 20:06:14 10° NW 20:06:31 12° NW 20:06:31 12° NW visible
15 Feb -1.9 19:13:44 10° NNW 19:16:09 24° NNE 19:16:09 24° NNE visible
16 Feb -1.4 18:21:19 10° NNW 18:23:32 17° NNE 18:25:44 10° ENE visible
16 Feb -1.1 19:57:04 10° NW 19:58:30 24° NW 19:58:30 24° NW visible
17 Feb -3.1 19:04:21 10° NW 19:07:31 50° NE 19:08:19 38° E visible
